Погода в Чжухае

Китай     22°16′09″N   113°32′35″E
темп.,
°C
ветер,
м/с
пор.,
м/с
влажн.,
%
обл.,
%
осадки,
мм/ч
давл.,
гПа
погр.,
м
12 апреля, пн
пн1223:00+23юв468021 0.0 1018546
02:00+23юв358199 0.0 1017576
05:00+23вюв3485100 0.1 1016357
08:00+23в3485100 0.3 1018332
11:00+25вюв347695 0.1 1018494
14:00+25юв557439 0.1 1015755
17:00+25ююв447744 0.0 1014576
20:00+24ююв34836 0.0 1015362
13 апреля, вт
вт1323:00+24ююв338559 0.0 1015249
02:00+23ю22865 0.0 1014215
05:00+23ю12875 0.0 1014185
08:00+24ююв22836 0.0 1015341
11:00+26ююв337215 0.0 1015604
14:00+26ююв446737 0.0 1013674
17:00+26ю556911 0.0 1011497
20:00+25ю45765 0.0 1013331
14 апреля, ср
ср1423:00+24ю35815 0.0 1014272
02:00+24ю23845 0.0 1013221
05:00+24юв348682 0.0 1013286
08:00+24вюв6883100 0.1 1015516
11:00+24вюв7880100 0.1 1016710
14:00+25вюв787875 0.2 1013754
17:00+24вюв778056 0.1 1012686
20:00+23вюв788368 0.1 1013591
15 апреля, чт
чт1523:00+23вюв898388 0.0 1014609
02:00+22вюв7984100 0.0 1013605
05:00+22в81083100 0.1 1013654
08:00+22в91080100 0.1 1015628
11:00+24вюв8874100 0.0 1015691
14:00+24юв657295 0.0 1013740
17:00+24юв4475100 0.0 1012662
20:00+23юв347995 0.0 1014451
16 апреля, пт
пт1623:00+23юв3482100 0.0 1015391
02:00+23вюв4484100 0.0 1014515
05:00+23вюв5582100 0.1 1014548
08:00+23в4580100 0.1 1016566
11:00+24в5472100 0.0 1016660
14:00+25юв4470100 0.0 1015692
17:00+24юв547282 0.0 1013582
20:00+24юв457786 0.0 1015469